Overview Statistics Trail Chart Weather Telemetry Raw packets
 

This is the latest recevied weather packets stored in our database for station/object OK1TBM-13. If no packets are shown the sender has not sent any weather packets the latest 10 day(s).

<< 52 53 54 55 56 57 58 >>
Time Temp. Humidity Pressure Rain* Wind** Luminosity Snow
1788175802 22.22° C 79% 1014.2 hPa 0 mm - 212 W/m² -
1788175501 21.67° C 80% 1014.2 hPa 0 mm - 219 W/m² -
1788175201 21.67° C 78% 1014.2 hPa 0 mm - 470 W/m² -
1788174901 22.22° C 81% 1014.2 hPa 0 mm - 1042 W/m² -
1788174601 21.67° C 81% 1014.2 hPa 0 mm - 319 W/m² -
1788174301 21.67° C 82% 1014.2 hPa 0 mm - 612 W/m² -
1788174001 21.67° C 81% 1014.2 hPa 0 mm - 353 W/m² -
1788173701 21.11° C 82% 1014.2 hPa 0 mm - 376 W/m² -
1788173401 21.11° C 84% 1014.2 hPa 0 mm - 400 W/m² -
1788173101 20.56° C 85% 1014.2 hPa 0 mm - 566 W/m² -
1788172801 20.56° C 86% 1014.2 hPa 0 mm - 391 W/m² -
1788172501 19.44° C 87% 1014.2 hPa 0 mm - 283 W/m² -
1788172201 20° C 88% 1014.2 hPa 0 mm - 342 W/m² -
1788171602 20° C 88% 1014.2 hPa 0 mm - 323 W/m² -
1788171302 20° C 86% 1014.2 hPa 0 mm - 466 W/m² -
1788170701 18.89° C 93% 1014.2 hPa 0 mm - 433 W/m² -
1788170401 18.33° C 94% 1014.2 hPa 0 mm - 235 W/m² -
1788170102 18.33° C 95% 1014.2 hPa 0 mm - 221 W/m² -
1788169801 18.33° C 95% 1014.6 hPa 0 mm - 210 W/m² -
1788169200 18.33° C 95% 1014.6 hPa 0 mm - 126 W/m² -
1788168907 18.33° C 95% 1014.2 hPa 0 mm - 123 W/m² -
1788168602 18.33° C 95% 1014.2 hPa 0 mm - 105 W/m² -
1788168302 18.33° C 94% 1014.2 hPa 0 mm - 178 W/m² -
1788168001 18.33° C 95% 1014.2 hPa 0 mm - 208 W/m² -
1788167701 17.78° C 97% 1014.2 hPa 0 mm - 144 W/m² -

* Rain latest hour (hover to see other rain measurements)
** Current wind speed in m/s (hover to see current wind gust speed)